Time,TemperatureF,DewpointF,PressureIn,WindDirection,WindDirectionDegrees,WindSpeedMPH,WindSpeedGustMPH,Humidity,HourlyPrecipIn,Conditions,Clouds,dailyrainin,SolarRadiationWatts/m^2,SoftwareType,DateUTC
2017-09-26 00:05:00,61.0,56.5,30.08,North,360,2.0,4.0,85,0.00,CLR,CLR,0.00,0.0,WeatherDisplay:10.37,2017-09-26 04:05:00,
2017-09-26 00:15:00,61.0,56.5,30.08,North,360,2.0,3.0,85,0.00,CLR,CLR,0.00,0.0,WeatherDisplay:10.37,2017-09-26 04:15:00,
2017-09-26 00:20:00,60.9,56.4,30.08,North,360,2.0,3.0,85,0.00,CLR,CLR,0.00,0.0,WeatherDisplay:10.37,2017-09-26 04:20:00,
2017-09-26 00:29:00,61.0,56.1,30.09,North,360,2.0,4.0,84,0.00,CLR,CLR,0.00,0.0,WeatherDisplay:10.37,2017-09-26 04:29:00,
2017-09-26 00:35:00,61.6,56.0,30.09,North,360,1.0,3.0,82,0.00,CLR,CLR,0.00,0.0,WeatherDisplay:10.37,2017-09-26 04:35:00,
2017-09-26 00:40:00,62.0,56.1,30.09,North,360,1.0,3.0,81,0.00,CLR,CLR,0.00,0.0,WeatherDisplay:10.37,2017-09-26 04:40:00,
2017-09-26 00:50:00,62.7,56.4,30.09,North,360,1.0,3.0,80,0.00,CLR,CLR,0.00,0.0,WeatherDisplay:10.37,2017-09-26 04:50:00,
2017-09-26 01:00:00,63.1,56.1,30.08,North,360,1.0,3.0,78,0.00,CLR,CLR,0.00,0.0,WeatherDisplay:10.37,2017-09-26 05:00:00,
2017-09-26 01:10:00,63.5,56.5,30.08,North,360,1.0,2.0,78,0.00,CLR,CLR,0.00,0.0,WeatherDisplay:10.37,2017-09-26 05:10:00,
2017-09-26 01:15:00,63.5,56.5,30.08,North,360,0.0,1.0,78,0.00,CLR,CLR,0.00,0.0,WeatherDisplay:10.37,2017-09-26 05:15:00,
2017-09-26 01:20:00,63.4,56.4,30.08,North,360,0.0,0.0,78,0.00,CLR,CLR,0.00,0.0,WeatherDisplay:10.37,2017-09-26 05:20:00,
2017-09-26 01:25:00,63.3,56.7,30.08,North,360,1.0,2.0,79,0.00,CLR,CLR,0.00,0.0,WeatherDisplay:10.37,2017-09-26 05:25:00,
2017-09-26 01:30:00,63.2,56.6,30.08,North,360,0.0,2.0,79,0.00,CLR,CLR,0.00,0.0,WeatherDisplay:10.37,2017-09-26 05:30:00,
2017-09-26 01:35:00,63.2,56.9,30.08,North,360,0.0,2.0,80,0.00,CLR,CLR,0.00,0.0,WeatherDisplay:10.37,2017-09-26 05:35:00,
2017-09-26 01:40:00,63.1,56.8,30.08,North,360,2.0,2.0,80,0.00,CLR,CLR,0.00,0.0,WeatherDisplay:10.37,2017-09-26 05:40:00,
2017-09-26 01:45:00,63.2,56.9,30.08,North,360,2.0,5.0,80,0.00,CLR,CLR,0.00,0.0,WeatherDisplay:10.37,2017-09-26 05:45:00,
2017-09-26 01:50:00,63.4,57.1,30.08,North,360,3.0,5.0,80,0.00,CLR,CLR,0.00,0.0,WeatherDisplay:10.37,2017-09-26 05:50:00,
2017-09-26 02:00:00,64.2,57.9,30.08,North,360,2.0,4.0,80,0.00,CLR,CLR,0.00,0.0,WeatherDisplay:10.37,2017-09-26 06:00:00,
2017-09-26 02:05:00,64.5,58.2,30.08,North,360,0.0,4.0,80,0.00,CLR,CLR,0.00,0.0,WeatherDisplay:10.37,2017-09-26 06:05:00,
2017-09-26 02:10:00,64.7,58.0,30.08,North,360,0.0,3.0,79,0.00,CLR,CLR,0.00,0.0,WeatherDisplay:10.37,2017-09-26 06:10:00,
2017-09-26 02:20:00,64.8,58.1,30.08,North,360,1.0,3.0,79,0.00,CLR,CLR,0.00,0.0,WeatherDisplay:10.37,2017-09-26 06:20:00,
2017-09-26 02:25:00,64.8,58.1,30.08,North,360,2.0,3.0,79,0.00,CLR,CLR,0.00,0.0,WeatherDisplay:10.37,2017-09-26 06:25:00,
2017-09-26 02:30:00,64.6,58.3,30.08,North,360,2.0,4.0,80,0.00,CLR,CLR,0.00,0.0,WeatherDisplay:10.37,2017-09-26 06:30:00,
2017-09-26 02:40:00,64.1,58.1,30.08,North,360,1.0,3.0,81,0.00,CLR,CLR,0.00,0.0,WeatherDisplay:10.37,2017-09-26 06:40:00,
2017-09-26 02:50:00,64.1,58.5,30.07,North,360,2.0,4.0,82,0.00,CLR,CLR,0.00,0.0,WeatherDisplay:10.37,2017-09-26 06:50:00,
2017-09-26 02:55:00,64.2,58.6,30.07,North,360,2.0,4.0,82,0.00,CLR,CLR,0.00,0.0,WeatherDisplay:10.37,2017-09-26 06:55:00,
2017-09-26 03:05:00,64.3,59.0,30.07,North,360,2.0,3.0,83,0.00,CLR,CLR,0.00,0.0,WeatherDisplay:10.37,2017-09-26 07:05:00,
2017-09-26 03:14:00,64.2,58.9,30.07,North,360,2.0,4.0,83,0.00,CLR,CLR,0.00,0.0,WeatherDisplay:10.37,2017-09-26 07:14:00,
2017-09-26 03:20:00,64.1,59.2,30.07,North,360,3.0,5.0,84,0.00,CLR,CLR,0.00,0.0,WeatherDisplay:10.37,2017-09-26 07:20:00,
2017-09-26 03:25:00,64.1,59.2,30.07,North,360,3.0,5.0,84,0.00,CLR,CLR,0.00,0.0,WeatherDisplay:10.37,2017-09-26 07:25:00,
2017-09-26 03:30:00,64.0,59.1,30.07,North,360,1.0,4.0,84,0.00,CLR,CLR,0.00,0.0,WeatherDisplay:10.37,2017-09-26 07:30:00,
2017-09-26 03:34:00,63.9,59.3,30.07,North,360,0.0,2.0,85,0.00,CLR,CLR,0.00,0.0,WeatherDisplay:10.37,2017-09-26 07:34:00,
2017-09-26 03:39:00,63.8,59.2,30.07,North,360,2.0,3.0,85,0.00,CLR,CLR,0.00,0.0,WeatherDisplay:10.37,2017-09-26 07:39:00,
2017-09-26 03:45:00,63.6,59.3,30.07,North,360,1.0,4.0,86,0.00,CLR,CLR,0.00,0.0,WeatherDisplay:10.37,2017-09-26 07:45:00,
2017-09-26 03:50:00,63.6,59.3,30.07,North,360,0.0,3.0,86,0.00,CLR,CLR,0.00,0.0,WeatherDisplay:10.37,2017-09-26 07:50:00,
2017-09-26 03:55:00,63.6,59.7,30.07,North,360,0.0,2.0,87,0.00,CLR,CLR,0.00,0.0,WeatherDisplay:10.37,2017-09-26 07:55:00,
2017-09-26 04:00:00,63.7,59.8,30.07,North,360,0.0,3.0,87,0.00,CLR,CLR,0.00,0.0,WeatherDisplay:10.37,2017-09-26 08:00:00,